SCP
0 0 0 0 0 0 0 0 0 0 0 0 0 0 0 0 0 0 0 0 0 0 0 0 0 0 0 0 0 0 0 0 0 0 0 0 0 0 0 0 0 0 0
0 0 0 0 0 0 0 0 0 0 0 0 0 0 0 0 0 0 0 0 0 0 0 0 0 0 0 0 0 0 0 0 0 0 0 0 0 0 0 0 0 0 0
0 0 0 0 0 0 0 0 0 0 0 0 0 0 0 0 0 0 0 0 0 0 0 0 0 0 0 0 0 0 0 0 0 0 0 0 0 0 0 0 0 0 0
0 0 0 0 0 0 0 0 0 0 0 0 0 0 0 0 0 0 0 0 0 0 0 0 0 0 0 0 0 0 0 0 0 0 0 0 0 0 0 0 0 0 0
0 0 0 0 0 0 0 0 0 0 0 0 0 0 0 0 0 0 0 0 0 0 0 0 0 0 0 0 0 0 0 0 0 0 0 0 0 0 0 0 0 0 0
0 0 0 0 0 0 0 0 0 0 0 0 0 0 0 0 0 -0 -0 0 0 0 0 0 0 0 0 0 0 0 0 0 0 0 0 0 0 0 0 0 0 0 0
0 0 0 0 0 0 0 0 0 0 0 0 0 0 0 0 0 -0 -0 0 0 0 0 0 0 0 0 0 0 0 0 0 0 0 0 0 0 0 0 0 0 0 0
0 0 0 0 0 0 0 0 0 0 0 0 0 0 0 0 0 0 -0 0 0 0 0 0 0 0 0 0 0 0 0 0 0 0 0 0 0 0 0 0 0 0 0
0 0 0 0 0 0 0 0 0 0 0 0 0 0 0 0 0 0 0 0 0 0 0 0 0 0 0 0 0 0 0 0 0 0 0 0 0 0 0 0 0 0 0
0 0 0 0 0 0 0 0 0 0 0 0 0 0 0 0 0 0 0 0 0 0 0 0 0 0 0 0 0 0 0 0 0 0 0 0 0 0 0 0 0 0 0
0 0 0 0 0 0 0 0 0 0 0 0 0 0 0 0 0 0 0 0 0 0 0 0 0 0 0 0 0 0 0 0 0 0 0 0 0 0 0 0 0 0 0
0 0 0 0 0 0 0 0 0 0 0 0 0 0 0 0 0 -0 -0 -0 -0 0 0 0 0 0 0 0 0 0 0 0 0 0 0 0 0 0 0 0 0 0 0
0 0 0 0 0 0 0 0 0 0 0 0 0 0 0 0 0 0 0 0 -0 0 0 0 -0 0 0 0 0 0 0 0 0 0 0 0 0 0 0 0 0 0 0
0 0 0 0 0 0 0 0 0 0 0 0 0 0 0 0 0 0 0 0 0 0 0 0 0 0 0 0 0 0 0 0 0 0 0 0 0 0 0 0 0 0 0
0 0 0 0 0 0 0 0 0 0 0 0 0 0 0 0 0 0 0 0 0 0 0 0 0 0 0 0 0 0 0 0 0 0 0 0 0 0 0 0 0 0 0
0 0 0 0 0 0 0 0 0 0 0 0 0 0 0 0 0 0 0 0 0 0 0 0 0 0 0 0 0 0 0 0 0 0 0 0 0 0 0 0 0 0 0
0 0 0 0 0 0 0 0 0 0 0 0 0 0 0 0 0 0 0 0 0 0 0 -0 0 0 0 0 0 0 0 0 0 0 0 0 0 0 0 0 0 0 0
0 0 0 0 0 0 0 0 0 0 0 0 0 0 0 0 0 0 0 0 0 0 -0 -0 -0 0 0 0 0 0 0 0 0 0 0 0 0 0 0 0 0 0 0
0 0 0 0 0 0 0 0 0 0 0 0 0 0 0 0 0 0 0 0 0 0 0 -0 -0 0 0 0 0 0 0 0 0 0 0 0 0 0 0 0 0 0 0
0 0 0 0 0 0 0 0 0 0 0 0 0 0 0 0 0 0 0 0 0 0 0 0 0 0 0 0 0 0 0 0 0 0 0 0 0 0 0 0 0 0 0
0 0 0 0 0 0 0 0 0 0 0 0 0 0 0 0 0 0 0 0 0 0 0 0 0 -0 0 0 0 0 0 0 0 0 0 0 0 0 0 0 0 0 0
0 0 0 0 0 0 0 0 0 0 0 0 0 0 0 0 0 0 0 0 0 0 0 0 0 0 0 0 0 0 0 0 0 0 0 0 0 0 0 0 0 0 0
0 0 0 0 0 0 0 0 0 0 0 0 0 0 0 0 0 0 0 0 0 0 0 0 0 -0 0 0 0 0 0 0 0 0 0 0 0 0 0 0 0 0 0
0 0 0 0 0 0 0 0 0 0 0 0 0 0 0 0 0 0 0 0 0 0 0 0 0 -0 -0 0 0 0 0 0 0 0 0 0 0 0 0 0 0 0 0
0 0 0 0 0 0 0 0 0 0 0 0 0 0 0 0 0 0 0 0 0 0 0 0 0 0 -0 -0 0 0 0 0 0 0 0 0 0 0 0 0 0 0 0
0 0 0 0 0 0 0 0 0 0 0 0 0 0 0 0 0 0 0 0 0 -0 -0 0 0 0 -0 0 -0 0 0 0 0 0 0 0 0 0 0 0 0 0 0
Wind_Speed_500mb
30 35 36 36 37 41 45 47 47 46 42 39 36 32 32 34 39 41 41 44 50 52 45 43 49 58 55 37 16 12 14 14 19 14 13 15 16 17 19 19 15 13 10
30 32 31 33 36 41 45 47 49 48 45 37 32 29 28 28 31 37 40 40 46 51 50 41 44 54 57 51 31 14 14 18 23 27 30 23 22 22 23 21 19 15 11
25 24 26 30 36 42 46 48 49 48 46 39 31 27 25 25 26 31 36 36 38 44 48 46 40 45 57 59 43 28 10 7 9 10 14 16 20 21 22 23 20 20 16
19 20 22 28 36 43 46 48 48 47 45 40 32 25 21 21 23 26 31 33 32 36 42 45 45 38 46 55 50 33 18 7 6 7 8 8 9 12 15 15 18 16 12
13 16 19 27 36 40 43 45 46 46 43 39 34 26 19 16 25 30 27 27 31 30 34 40 45 43 29 44 45 40 28 17 9 2 2 3 6 7 8 12 14 9 8
10 10 16 26 33 38 41 43 43 42 41 38 32 28 24 18 31 31 25 22 26 29 31 35 42 44 39 32 43 37 33 27 19 12 10 9 10 8 6 9 9 9 13
6 5 13 23 30 35 38 40 41 42 40 37 32 29 26 23 29 36 25 20 25 25 28 31 37 43 48 34 37 40 35 31 27 19 13 12 9 6 4 6 6 7 12
8 1 11 20 27 31 35 37 40 41 41 40 36 32 28 26 31 36 30 21 20 23 25 27 31 37 44 44 30 37 39 34 32 26 21 17 13 9 4 3 5 6 12
11 4 6 15 21 26 29 33 37 40 41 43 42 40 35 28 29 33 35 24 19 21 24 23 25 29 35 40 34 26 37 35 30 28 24 18 16 11 6 7 11 7 13
15 8 3 10 16 22 28 32 35 38 41 42 44 45 42 33 25 36 38 31 24 21 20 20 21 22 27 34 32 32 29 35 30 27 26 26 26 23 14 9 9 7 15
20 13 6 7 13 20 24 28 30 33 35 39 42 45 46 45 39 42 38 35 30 25 22 19 21 16 21 27 26 26 28 26 27 28 28 31 28 26 21 15 13 13 9
23 16 9 6 10 16 20 24 27 30 32 36 40 44 47 48 50 45 43 39 32 26 21 19 17 16 17 22 24 24 19 23 28 28 29 33 30 27 24 19 18 16 15
26 19 12 6 6 11 16 20 24 28 31 36 40 44 48 50 58 55 52 44 34 29 21 17 13 12 11 16 19 18 19 24 22 27 30 30 29 26 22 19 21 23 22
28 22 15 9 5 6 12 18 22 25 29 36 40 44 47 53 62 63 62 56 42 32 19 11 4 4 8 11 14 18 21 25 26 29 30 28 27 28 23 20 17 23 21
32 24 17 11 5 1 8 14 19 24 29 34 38 42 46 51 52 49 53 59 46 39 15 1 5 8 6 8 15 19 22 21 25 28 27 28 28 30 28 21 18 20 24
32 26 19 13 7 2 4 10 16 20 21 24 27 31 35 35 37 43 52 58 48 33 23 10 10 9 9 9 13 18 25 25 24 24 28 26 28 30 30 26 20 19 21
34 29 23 16 10 5 1 4 9 15 18 19 22 26 29 33 34 41 51 55 46 29 22 15 11 8 8 9 11 14 25 25 23 23 24 26 26 27 29 28 24 18 17
36 31 25 20 15 9 7 7 10 11 12 13 19 23 26 28 31 38 42 42 42 33 26 21 12 9 6 6 8 8 18 19 21 25 24 24 27 28 27 28 26 19 15
37 32 27 22 16 13 11 10 12 14 16 18 14 17 20 22 25 30 37 42 49 44 31 23 18 9 6 5 3 3 10 13 15 19 26 26 24 27 27 24 23 21 14
40 37 33 25 22 18 16 15 15 16 16 18 22 20 17 17 18 24 30 34 37 42 39 28 21 15 5 1 4 1 1 6 10 11 18 24 23 24 25 21 20 22 17
39 36 34 30 25 23 23 20 21 19 17 17 20 23 22 20 21 22 22 26 30 31 36 35 27 19 12 4 4 5 4 3 4 6 9 16 22 19 20 21 22 21 17
43 39 38 32 30 29 27 27 25 24 21 18 17 19 21 19 16 16 17 19 22 26 24 29 32 27 19 11 6 8 9 7 6 3 2 5 13 18 16 21 22 19 14
48 45 41 37 33 33 33 32 29 28 25 22 21 18 19 19 17 15 14 15 16 18 23 21 21 25 26 21 14 7 12 14 11 10 6 3 4 12 15 14 20 17 12
44 43 41 37 37 36 35 33 32 30 28 24 23 22 21 21 19 17 17 15 14 14 16 19 20 18 19 22 20 12 11 15 17 15 13 8 3 5 10 11 12 18 12
47 44 42 37 36 36 37 35 33 30 29 27 25 25 23 23 22 21 20 20 19 15 14 16 17 18 16 16 18 18 10 11 18 20 18 14 9 6 3 8 8 10 11
43 42 41 38 38 35 36 36 33 31 28 27 27 27 27 25 24 24 25 24 24 22 18 17 18 17 16 15 15 16 17 11 14 23 24 20 16 13 6 2 2 5 9
Wind_Direction_500mb
336 341 340 343 351 348 347 344 342 340 329 311 315 330 343 356 5 10 10 13 15 16 17 19 9 8 15 14 347 312 256 271 250 273 270 253 230 227 224 218 214 210 229
336 341 344 351 354 351 350 348 348 348 343 331 312 316 331 342 356 7 10 14 14 15 18 15 16 5 11 14 11 332 276 271 278 277 270 255 247 240 233 233 230 239 245
331 341 346 355 357 356 353 352 352 351 347 345 332 320 328 337 346 357 10 12 17 17 17 20 13 9 8 11 13 2 350 303 272 260 257 242 237 237 233 236 238 244 252
329 339 349 359 2 359 357 355 356 355 349 350 348 337 332 337 341 347 1 6 16 17 19 23 19 13 8 8 16 19 21 358 304 243 238 242 227 226 224 229 230 231 231
322 338 354 5 6 3 358 358 359 356 352 352 353 350 342 345 351 348 349 356 3 11 15 18 26 23 15 12 15 19 24 32 43 78 147 178 153 148 182 190 188 190 178
307 337 0 10 11 6 2 1 2 359 358 356 358 1 360 356 6 0 347 347 351 1 6 13 16 23 26 19 20 24 25 34 46 62 87 107 115 125 153 169 174 170 132
271 339 13 15 14 10 7 6 6 6 6 5 4 7 9 1 14 7 347 343 344 349 358 4 14 16 24 27 18 25 25 35 43 49 66 81 90 101 156 166 145 157 155
222 24 23 19 18 15 12 11 13 14 13 14 11 9 9 9 24 11 359 352 347 349 348 0 4 12 25 25 19 12 22 27 38 43 48 57 63 57 70 170 154 134 147
200 140 37 27 22 20 19 19 21 22 22 21 18 13 11 13 30 11 360 356 348 348 341 1 360 8 22 24 26 26 13 30 32 37 39 46 52 47 70 147 144 105 128
190 168 89 34 25 28 23 24 28 30 31 29 26 23 20 17 22 10 4 355 347 345 339 357 1 7 24 25 26 28 20 20 28 32 39 46 50 52 74 106 127 161 138
187 178 164 52 28 33 31 30 29 32 34 35 33 29 27 22 20 13 10 354 350 344 337 342 1 13 29 28 26 26 24 22 24 29 38 48 50 56 65 73 85 92 125
186 179 173 99 37 33 31 33 29 28 27 31 32 31 29 24 23 17 10 2 353 340 334 334 359 11 30 28 30 33 34 37 29 31 37 46 47 55 56 65 72 65 96
187 184 170 138 59 31 27 26 27 25 22 25 25 25 23 20 23 14 6 1 354 337 321 325 352 8 26 36 39 42 45 51 33 35 38 37 41 46 42 49 63 60 84
189 186 179 165 114 25 13 14 19 23 19 19 17 18 19 19 20 7 357 355 359 348 309 305 318 14 46 40 51 59 53 49 45 41 39 39 36 40 49 44 54 73 91
191 191 190 180 154 16 8 5 10 16 20 13 10 11 10 20 14 3 359 2 2 353 19 66 129 148 127 97 71 69 72 67 58 45 39 39 37 38 44 53 69 84 100
196 196 196 197 192 177 359 357 6 12 17 10 7 4 7 11 8 6 5 8 5 14 17 60 80 97 86 75 69 66 66 60 54 46 42 38 37 38 40 46 65 97 111
198 202 202 200 210 220 267 355 359 4 0 2 4 5 5 2 8 12 12 11 8 14 18 40 74 76 78 74 63 55 62 56 46 40 46 39 38 41 41 44 49 81 117
202 204 208 212 212 228 266 310 335 360 9 359 355 2 5 3 4 12 17 14 24 24 27 34 42 77 92 87 71 64 71 75 61 44 47 47 40 41 41 38 40 59 98
206 212 217 225 231 247 269 294 315 335 345 350 354 354 0 3 4 8 16 18 25 29 27 27 29 40 84 119 89 34 57 67 64 48 43 45 41 41 42 36 36 48 85
209 214 222 228 241 251 267 285 299 313 328 335 338 346 358 357 12 10 14 23 26 30 30 26 25 22 18 100 180 181 80 85 79 62 49 44 42 44 37 35 33 49 69
217 223 228 232 244 258 269 278 285 296 306 319 324 329 339 353 1 6 2 12 24 29 32 32 25 19 14 319 250 221 219 204 109 91 62 49 47 52 46 34 37 48 62
219 224 233 239 244 258 267 274 281 288 293 299 304 311 318 327 338 346 357 356 7 16 28 31 30 29 18 4 295 255 243 235 214 172 102 38 44 42 42 41 33 45 61
220 225 230 240 249 256 264 272 275 279 281 286 291 294 296 302 312 321 333 346 349 356 3 15 29 25 22 17 356 295 249 240 239 231 217 204 39 42 43 50 34 34 61
229 234 236 237 246 255 262 267 270 273 276 279 281 282 284 288 295 299 307 319 328 336 337 350 1 14 18 17 17 351 291 253 242 238 234 226 191 48 37 40 39 29 41
228 232 240 243 250 257 261 263 266 268 270 271 271 271 272 275 279 284 290 299 305 312 320 323 335 345 353 12 12 9 343 276 251 244 242 231 217 203 53 39 34 38 28
232 237 242 244 249 255 260 262 262 262 263 264 265 267 268 266 268 274 280 287 292 298 304 307 307 314 326 335 356 4 359 328 260 243 240 235 221 216 226 189 36 54 30
Wind_Speed_850mb
30 35 36 36 37 41 45 47 47 46 42 39 36 32 32 34 39 41 41 44 50 52 45 43 49 58 55 37 16 12 14 14 19 14 13 15 16 17 19 19 15 13 10
30 32 31 33 36 41 45 47 49 48 45 37 32 29 28 28 31 37 40 40 46 51 50 41 44 54 57 51 31 14 14 18 23 27 30 23 22 22 23 21 19 15 11
25 24 26 30 36 42 46 48 49 48 46 39 31 27 25 25 26 31 36 36 38 44 48 46 40 45 57 59 43 28 10 7 9 10 14 16 20 21 22 23 20 20 16
19 20 22 28 36 43 46 48 48 47 45 40 32 25 21 21 23 26 31 33 32 36 42 45 45 38 46 55 50 33 18 7 6 7 8 8 9 12 15 15 18 16 12
13 16 19 27 36 40 43 45 46 46 43 39 34 26 19 16 25 30 27 27 31 30 34 40 45 43 29 44 45 40 28 17 9 2 2 3 6 7 8 12 14 9 8
10 10 16 26 33 38 41 43 43 42 41 38 32 28 24 18 31 31 25 22 26 29 31 35 42 44 39 32 43 37 33 27 19 12 10 9 10 8 6 9 9 9 13
6 5 13 23 30 35 38 40 41 42 40 37 32 29 26 23 29 36 25 20 25 25 28 31 37 43 48 34 37 40 35 31 27 19 13 12 9 6 4 6 6 7 12
8 1 11 20 27 31 35 37 40 41 41 40 36 32 28 26 31 36 30 21 20 23 25 27 31 37 44 44 30 37 39 34 32 26 21 17 13 9 4 3 5 6 12
11 4 6 15 21 26 29 33 37 40 41 43 42 40 35 28 29 33 35 24 19 21 24 23 25 29 35 40 34 26 37 35 30 28 24 18 16 11 6 7 11 7 13
15 8 3 10 16 22 28 32 35 38 41 42 44 45 42 33 25 36 38 31 24 21 20 20 21 22 27 34 32 32 29 35 30 27 26 26 26 23 14 9 9 7 15
20 13 6 7 13 20 24 28 30 33 35 39 42 45 46 45 39 42 38 35 30 25 22 19 21 16 21 27 26 26 28 26 27 28 28 31 28 26 21 15 13 13 9
23 16 9 6 10 16 20 24 27 30 32 36 40 44 47 48 50 45 43 39 32 26 21 19 17 16 17 22 24 24 19 23 28 28 29 33 30 27 24 19 18 16 15
26 19 12 6 6 11 16 20 24 28 31 36 40 44 48 50 58 55 52 44 34 29 21 17 13 12 11 16 19 18 19 24 22 27 30 30 29 26 22 19 21 23 22
28 22 15 9 5 6 12 18 22 25 29 36 40 44 47 53 62 63 62 56 42 32 19 11 4 4 8 11 14 18 21 25 26 29 30 28 27 28 23 20 17 23 21
32 24 17 11 5 1 8 14 19 24 29 34 38 42 46 51 52 49 53 59 46 39 15 1 5 8 6 8 15 19 22 21 25 28 27 28 28 30 28 21 18 20 24
32 26 19 13 7 2 4 10 16 20 21 24 27 31 35 35 37 43 52 58 48 33 23 10 10 9 9 9 13 18 25 25 24 24 28 26 28 30 30 26 20 19 21
34 29 23 16 10 5 1 4 9 15 18 19 22 26 29 33 34 41 51 55 46 29 22 15 11 8 8 9 11 14 25 25 23 23 24 26 26 27 29 28 24 18 17
36 31 25 20 15 9 7 7 10 11 12 13 19 23 26 28 31 38 42 42 42 33 26 21 12 9 6 6 8 8 18 19 21 25 24 24 27 28 27 28 26 19 15
37 32 27 22 16 13 11 10 12 14 16 18 14 17 20 22 25 30 37 42 49 44 31 23 18 9 6 5 3 3 10 13 15 19 26 26 24 27 27 24 23 21 14
40 37 33 25 22 18 16 15 15 16 16 18 22 20 17 17 18 24 30 34 37 42 39 28 21 15 5 1 4 1 1 6 10 11 18 24 23 24 25 21 20 22 17
39 36 34 30 25 23 23 20 21 19 17 17 20 23 22 20 21 22 22 26 30 31 36 35 27 19 12 4 4 5 4 3 4 6 9 16 22 19 20 21 22 21 17
43 39 38 32 30 29 27 27 25 24 21 18 17 19 21 19 16 16 17 19 22 26 24 29 32 27 19 11 6 8 9 7 6 3 2 5 13 18 16 21 22 19 14
48 45 41 37 33 33 33 32 29 28 25 22 21 18 19 19 17 15 14 15 16 18 23 21 21 25 26 21 14 7 12 14 11 10 6 3 4 12 15 14 20 17 12
44 43 41 37 37 36 35 33 32 30 28 24 23 22 21 21 19 17 17 15 14 14 16 19 20 18 19 22 20 12 11 15 17 15 13 8 3 5 10 11 12 18 12
47 44 42 37 36 36 37 35 33 30 29 27 25 25 23 23 22 21 20 20 19 15 14 16 17 18 16 16 18 18 10 11 18 20 18 14 9 6 3 8 8 10 11
43 42 41 38 38 35 36 36 33 31 28 27 27 27 27 25 24 24 25 24 24 22 18 17 18 17 16 15 15 16 17 11 14 23 24 20 16 13 6 2 2 5 9
Wind_Direction_850mb
336 341 340 343 351 348 347 344 342 340 329 311 315 330 343 356 5 10 10 13 15 16 17 19 9 8 15 14 347 312 256 271 250 273 270 253 230 227 224 218 214 210 229
336 341 344 351 354 351 350 348 348 348 343 331 312 316 331 342 356 7 10 14 14 15 18 15 16 5 11 14 11 332 276 271 278 277 270 255 247 240 233 233 230 239 245
331 341 346 355 357 356 353 352 352 351 347 345 332 320 328 337 346 357 10 12 17 17 17 20 13 9 8 11 13 2 350 303 272 260 257 242 237 237 233 236 238 244 252
329 339 349 359 2 359 357 355 356 355 349 350 348 337 332 337 341 347 1 6 16 17 19 23 19 13 8 8 16 19 21 358 304 243 238 242 227 226 224 229 230 231 231
322 338 354 5 6 3 358 358 359 356 352 352 353 350 342 345 351 348 349 356 3 11 15 18 26 23 15 12 15 19 24 32 43 78 147 178 153 148 182 190 188 190 178
307 337 0 10 11 6 2 1 2 359 358 356 358 1 360 356 6 0 347 347 351 1 6 13 16 23 26 19 20 24 25 34 46 62 87 107 115 125 153 169 174 170 132
271 339 13 15 14 10 7 6 6 6 6 5 4 7 9 1 14 7 347 343 344 349 358 4 14 16 24 27 18 25 25 35 43 49 66 81 90 101 156 166 145 157 155
222 24 23 19 18 15 12 11 13 14 13 14 11 9 9 9 24 11 359 352 347 349 348 0 4 12 25 25 19 12 22 27 38 43 48 57 63 57 70 170 154 134 147
200 140 37 27 22 20 19 19 21 22 22 21 18 13 11 13 30 11 360 356 348 348 341 1 360 8 22 24 26 26 13 30 32 37 39 46 52 47 70 147 144 105 128
190 168 89 34 25 28 23 24 28 30 31 29 26 23 20 17 22 10 4 355 347 345 339 357 1 7 24 25 26 28 20 20 28 32 39 46 50 52 74 106 127 161 138
187 178 164 52 28 33 31 30 29 32 34 35 33 29 27 22 20 13 10 354 350 344 337 342 1 13 29 28 26 26 24 22 24 29 38 48 50 56 65 73 85 92 125
186 179 173 99 37 33 31 33 29 28 27 31 32 31 29 24 23 17 10 2 353 340 334 334 359 11 30 28 30 33 34 37 29 31 37 46 47 55 56 65 72 65 96
187 184 170 138 59 31 27 26 27 25 22 25 25 25 23 20 23 14 6 1 354 337 321 325 352 8 26 36 39 42 45 51 33 35 38 37 41 46 42 49 63 60 84
189 186 179 165 114 25 13 14 19 23 19 19 17 18 19 19 20 7 357 355 359 348 309 305 318 14 46 40 51 59 53 49 45 41 39 39 36 40 49 44 54 73 91
191 191 190 180 154 16 8 5 10 16 20 13 10 11 10 20 14 3 359 2 2 353 19 66 129 148 127 97 71 69 72 67 58 45 39 39 37 38 44 53 69 84 100
196 196 196 197 192 177 359 357 6 12 17 10 7 4 7 11 8 6 5 8 5 14 17 60 80 97 86 75 69 66 66 60 54 46 42 38 37 38 40 46 65 97 111
198 202 202 200 210 220 267 355 359 4 0 2 4 5 5 2 8 12 12 11 8 14 18 40 74 76 78 74 63 55 62 56 46 40 46 39 38 41 41 44 49 81 117
202 204 208 212 212 228 266 310 335 360 9 359 355 2 5 3 4 12 17 14 24 24 27 34 42 77 92 87 71 64 71 75 61 44 47 47 40 41 41 38 40 59 98
206 212 217 225 231 247 269 294 315 335 345 350 354 354 0 3 4 8 16 18 25 29 27 27 29 40 84 119 89 34 57 67 64 48 43 45 41 41 42 36 36 48 85
209 214 222 228 241 251 267 285 299 313 328 335 338 346 358 357 12 10 14 23 26 30 30 26 25 22 18 100 180 181 80 85 79 62 49 44 42 44 37 35 33 49 69
217 223 228 232 244 258 269 278 285 296 306 319 324 329 339 353 1 6 2 12 24 29 32 32 25 19 14 319 250 221 219 204 109 91 62 49 47 52 46 34 37 48 62
219 224 233 239 244 258 267 274 281 288 293 299 304 311 318 327 338 346 357 356 7 16 28 31 30 29 18 4 295 255 243 235 214 172 102 38 44 42 42 41 33 45 61
220 225 230 240 249 256 264 272 275 279 281 286 291 294 296 302 312 321 333 346 349 356 3 15 29 25 22 17 356 295 249 240 239 231 217 204 39 42 43 50 34 34 61
229 234 236 237 246 255 262 267 270 273 276 279 281 282 284 288 295 299 307 319 328 336 337 350 1 14 18 17 17 351 291 253 242 238 234 226 191 48 37 40 39 29 41
228 232 240 243 250 257 261 263 266 268 270 271 271 271 272 275 279 284 290 299 305 312 320 323 335 345 353 12 12 9 343 276 251 244 242 231 217 203 53 39 34 38 28
232 237 242 244 249 255 260 262 262 262 263 264 265 267 268 266 268 274 280 287 292 298 304 307 307 314 326 335 356 4 359 328 260 243 240 235 221 216 226 189 36 54 30